Theta_e
299 299 299 300 301 301 301 301 302 302 303 303 304 305 305 306 306 307 308 311 313 316 318 320 323 325 329 331 335 337 337 337 332 321 325 324 322 322 325 321 321 318 317
299 299 299 300 300 300 300 301 302 302 303 303 303 303 304 304 304 306 307 309 312 314 316 319 320 326 328 331 333 334 336 339 334 321 320 319 320 323 321 319 316 315 315
298 298 298 298 298 299 300 301 302 301 302 302 302 301 302 303 304 305 307 308 311 314 316 318 320 323 324 328 332 333 335 337 333 321 317 321 320 318 315 315 313 312 314
298 297 297 297 298 299 300 301 301 302 302 303 303 302 303 303 304 304 305 307 310 313 315 318 320 322 325 326 331 334 335 335 329 325 320 319 318 315 315 310 307 310 310
296 296 297 298 299 300 300 300 302 302 302 303 303 303 303 304 304 303 303 305 308 312 314 317 320 323 324 327 330 333 335 333 327 323 319 316 312 310 309 310 307 308 306
296 296 297 298 299 299 300 300 301 301 301 302 302 302 302 303 303 303 304 304 306 309 310 313 321 322 323 321 323 325 333 331 326 324 319 315 311 313 311 309 306 304 302
295 297 297 298 298 299 300 300 300 300 301 301 301 302 301 302 301 301 302 303 305 307 310 315 318 325 323 327 322 322 322 321 325 327 319 319 314 315 313 309 308 307 306
295 297 297 297 297 299 299 299 300 301 301 301 302 302 302 303 301 300 300 303 305 308 318 318 319 324 326 326 329 332 332 328 326 329 325 323 320 319 317 314 312 308 307
296 296 296 297 297 298 298 299 300 301 302 305 305 304 303 303 301 300 301 303 308 312 319 323 323 322 317 314 331 332 329 328 315 314 317 314 310 311 314 312 307 305 302
296 296 298 298 298 298 299 299 301 302 304 304 305 307 306 305 303 300 301 306 310 316 319 320 314 320 312 309 330 329 325 322 322 320 318 312 312 312 309 315 312 306 306
298 298 298 298 298 299 299 300 300 301 302 302 301 303 303 305 306 302 301 309 313 315 320 326 325 306 307 308 318 328 325 323 317 322 320 317 317 314 315 317 315 312 307
297 297 297 297 298 298 298 299 299 299 299 298 298 299 300 302 301 302 300 300 307 313 323 327 318 304 304 305 317 309 306 316 323 320 317 314 312 311 315 315 317 316 316
297 296 297 298 296 297 296 295 294 297 296 295 296 296 296 298 300 303 301 299 299 309 324 317 302 302 302 306 305 305 309 324 321 318 316 314 314 315 316 315 316 318 316
296 296 296 295 295 295 295 294 294 294 294 293 294 294 294 295 297 303 301 311 302 309 309 310 309 308 311 315 310 314 324 324 321 319 318 317 315 314 313 314 312 313 309
295 295 294 294 294 293 294 293 294 295 294 292 293 293 292 293 295 294 294 309 315 309 312 313 310 314 316 314 317 321 324 322 321 321 317 315 314 314 313 314 312 311 307
293 293 292 291 292 292 291 292 293 293 293 292 292 292 293 293 293 294 293 297 299 299 313 313 313 315 317 317 318 320 320 319 320 318 317 315 313 313 312 312 312 311 306
292 292 291 291 290 290 290 290 289 292 293 292 292 292 292 291 293 294 295 298 297 305 314 314 314 316 319 320 319 319 318 320 320 318 316 315 315 314 312 312 311 310 305
294 293 292 290 289 290 290 290 290 289 288 290 292 292 292 291 293 295 296 305 312 312 315 314 315 315 316 317 317 317 316 317 317 316 316 316 315 313 313 311 311 309 303
294 292 292 291 290 290 290 290 289 289 289 289 291 292 291 291 294 296 298 309 310 310 311 313 315 315 315 316 314 315 316 315 315 315 315 314 313 314 313 313 309 300 300
294 292 291 291 290 290 290 289 289 288 288 289 289 290 291 293 295 296 299 303 307 309 310 310 311 314 315 314 314 314 313 312 313 313 312 312 314 314 312 309 305 302 304
293 292 288 292 291 291 290 290 289 288 288 288 289 290 287 292 292 294 296 298 302 306 308 311 311 312 314 314 314 313 313 313 313 311 310 311 312 310 310 309 307 305 304
292 292 291 291 292 291 290 290 290 289 289 288 289 290 288 292 292 293 295 296 299 303 307 309 311 312 313 314 313 312 312 311 312 312 311 311 310 308 306 306 302 300 295
292 292 291 291 291 290 291 291 290 289 289 289 289 289 290 291 292 292 293 295 297 299 303 308 309 310 311 312 313 313 311 311 313 313 310 310 309 305 304 303 300 298 296
292 292 292 291 291 290 290 290 290 289 289 289 289 289 290 291 291 292 293 294 296 297 298 300 305 308 309 310 311 312 312 313 313 313 311 309 306 302 303 300 299 298 295
293 292 292 291 290 289 290 289 289 289 289 289 289 289 290 291 291 292 293 294 294 295 295 296 297 300 306 308 309 309 296 295 309 301 311 309 307 305 303 303 300 298 295
294 293 291 291 290 290 289 289 289 289 289 289 289 290 290 291 292 292 293 293 294 294 294 294 294 295 295 296 298 292 291 293 300 297 309 308 306 303 303 301 298 296 295
Wind_Speed
5 7 9 10 10 11 11 12 12 12 12 12 12 13 13 13 13 13 14 16 17 15 15 16 18 18 14 13 14 14 13 10 10 2 3 12 14 15 15 11 13 10 9
6 8 10 11 11 12 12 13 13 13 12 12 13 14 14 16 16 15 16 15 17 18 19 18 20 15 21 19 16 20 15 14 9 12 8 9 12 15 13 15 10 8 9
7 8 11 11 12 13 13 13 13 14 14 14 15 17 16 16 16 17 16 17 18 18 17 19 20 20 21 16 20 18 17 11 11 11 8 8 8 11 13 11 10 10 8
8 9 12 12 13 13 14 14 14 15 16 15 15 15 15 15 15 18 19 18 19 18 20 21 21 24 23 22 23 24 20 13 12 13 12 12 12 12 12 13 10 7 9
9 10 12 12 13 13 14 15 16 16 16 16 17 16 16 15 13 17 18 18 20 21 19 23 23 25 32 26 17 24 21 14 14 14 12 12 10 13 15 10 11 10 7
10 12 12 12 13 13 14 16 16 17 17 17 17 17 17 13 24 27 22 17 20 20 19 19 17 25 32 32 36 31 23 20 19 13 11 16 17 15 12 14 13 12 8
10 11 12 12 13 14 15 16 17 17 17 18 18 18 18 19 27 26 28 17 19 21 21 20 19 19 28 23 35 34 25 30 30 21 21 19 18 19 19 19 16 15 9
9 12 13 14 16 15 15 16 16 15 17 17 18 18 17 17 27 28 29 19 20 22 21 22 25 24 21 24 30 28 22 22 22 16 22 22 20 22 23 17 18 13 12
11 13 14 15 14 15 16 17 16 15 16 15 16 18 17 19 27 29 25 18 18 19 15 20 19 18 22 35 28 27 22 17 6 14 19 26 25 24 21 18 15 16 9
12 12 12 13 14 15 16 16 14 15 15 12 16 15 21 21 27 27 25 14 13 13 16 17 21 22 28 29 25 23 21 16 15 14 13 13 20 26 35 22 21 18 14
11 12 13 14 15 15 15 14 14 15 15 14 15 15 18 20 22 23 21 15 11 8 10 13 16 25 30 24 22 19 21 19 18 16 14 14 15 16 14 12 16 18 16
10 11 12 15 12 12 15 14 14 13 14 15 14 13 14 17 23 23 20 20 13 11 9 12 10 23 25 21 22 17 23 23 15 14 14 14 15 15 13 12 13 10 6
10 11 13 13 14 13 14 15 13 11 11 13 12 12 15 14 13 21 11 11 15 8 8 11 18 19 22 18 19 26 23 14 15 14 14 13 14 14 13 13 11 12 7
10 12 11 12 14 12 10 11 10 9 10 12 13 13 14 14 13 11 13 7 7 5 10 8 10 12 15 13 17 22 13 12 14 15 13 12 12 13 13 12 13 11 11
9 10 11 9 11 12 11 11 10 9 9 11 10 11 14 14 14 23 15 9 2 7 9 7 6 8 11 11 12 15 13 13 12 11 13 14 14 13 12 13 12 12 10
9 8 10 10 10 10 11 12 12 13 16 14 15 13 13 20 27 20 9 6 8 6 6 7 7 12 15 15 14 12 12 15 12 13 13 15 15 14 14 13 13 12 13
7 9 9 11 9 10 11 11 16 16 17 11 20 26 25 25 23 18 15 10 10 5 7 7 7 7 14 16 15 13 13 12 16 14 14 14 15 12 16 14 14 13 12
7 11 8 8 8 9 10 11 10 12 14 16 20 21 27 29 24 22 19 11 6 7 5 5 9 8 8 14 13 13 11 11 12 12 12 12 14 14 14 14 14 15 14
6 7 7 7 7 10 9 9 9 11 11 11 12 16 25 29 17 21 18 8 6 6 6 6 6 8 10 10 13 11 12 11 12 12 11 11 12 13 13 12 13 15 16
6 10 9 7 7 8 8 9 10 10 11 11 10 11 14 13 13 13 12 10 9 7 6 7 5 7 9 12 12 13 11 11 11 10 10 10 11 10 11 13 13 15 13
5 6 9 7 7 8 8 9 9 10 10 10 10 11 18 9 10 10 10 10 10 8 6 8 8 4 9 11 12 11 11 11 10 10 10 10 10 10 10 10 12 11 12
5 5 6 8 8 8 9 9 9 10 10 10 11 12 17 10 10 10 11 10 9 9 7 6 7 7 7 9 11 12 12 12 10 10 10 10 10 10 10 11 11 11 12
5 7 5 7 8 9 8 8 9 11 10 11 10 10 11 10 11 11 11 11 10 10 8 7 7 7 6 7 7 7 10 10 9 10 11 10 10 10 11 11 12 12 12
4 6 7 7 8 9 10 10 9 11 11 11 11 11 10 10 11 11 11 10 10 11 11 11 10 10 9 9 7 7 9 9 8 10 14 11 10 11 11 11 12 13 12
4 5 6 7 8 8 9 10 11 11 10 10 11 11 11 11 11 11 10 10 10 9 11 10 9 11 12 11 8 8 8 11 10 9 9 12 13 14 12 11 13 12 16
4 5 4 5 6 7 8 7 8 9 10 11 10 10 10 10 10 11 11 12 11 11 12 9 12 15 14 9 8 8 8 10 10 10 10 11 11 11 11 14 18 13 17
Wind_Direction
274 276 278 285 286 286 279 282 279 277 273 270 269 269 267 265 263 258 253 252 247 243 244 243 241 236 237 229 225 221 213 199 180 99 122 158 161 165 156 155 149 144 146
276 284 288 295 294 286 280 280 280 279 276 274 272 271 269 272 268 260 255 250 245 239 238 240 246 238 234 230 224 222 206 199 159 152 130 150 164 170 151 149 146 138 147
284 298 300 292 286 281 280 285 288 287 282 277 279 281 279 278 270 265 259 254 248 246 241 243 241 240 238 228 218 214 208 187 158 148 133 153 146 146 142 132 136 128 141
300 296 289 285 282 282 286 287 284 283 284 281 274 268 264 263 262 266 265 257 249 243 244 237 241 236 233 229 221 207 204 177 154 144 150 147 150 154 144 144 133 138 141
295 288 284 284 285 287 289 288 287 289 287 284 278 271 265 256 256 259 257 254 249 247 251 242 239 234 230 225 221 206 192 171 160 151 151 147 144 153 162 159 139 137 136
289 286 287 291 291 291 291 292 292 291 287 283 279 274 269 261 262 257 253 254 255 252 250 261 249 238 225 219 212 214 189 172 164 155 157 159 162 163 155 156 146 149 157
280 283 291 294 297 300 298 297 293 294 292 287 284 277 269 261 260 260 250 249 249 248 246 232 237 228 217 214 206 205 181 178 165 165 161 168 163 170 155 157 166 160 150
287 301 305 309 308 304 302 297 300 302 297 289 284 276 265 265 265 262 259 250 252 247 243 248 225 207 208 205 199 192 178 182 172 163 164 165 169 169 169 165 151 125 111
308 312 313 315 306 305 300 302 304 302 299 304 291 282 276 271 267 263 260 259 247 256 259 253 207 202 195 195 187 174 171 176 161 148 165 164 155 156 154 137 151 137 126
315 310 305 309 302 301 302 306 304 303 301 306 307 304 288 280 276 268 257 246 254 275 293 248 237 219 176 175 166 162 162 159 150 125 114 111 143 157 161 163 156 153 136
301 304 310 313 310 305 309 309 310 307 303 303 306 306 300 289 292 284 252 248 255 258 267 228 187 147 149 156 156 161 165 157 149 138 134 140 149 156 167 161 167 157 154
307 311 311 314 311 313 315 313 314 312 309 309 314 312 304 300 301 292 256 244 250 255 207 194 144 146 146 147 150 155 145 148 146 145 143 152 153 161 166 163 160 154 156
318 317 314 314 321 317 321 321 324 320 312 316 319 319 311 309 309 300 275 269 255 257 143 138 136 140 142 140 133 142 152 156 148 147 155 157 159 155 144 144 128 123 106
323 316 317 320 323 321 319 322 318 317 315 319 321 315 313 313 316 316 326 339 209 135 107 102 132 140 152 145 144 149 156 158 155 153 153 139 136 148 151 150 142 136 121
319 315 325 323 326 320 318 316 312 311 310 313 308 306 315 312 308 302 291 291 273 120 113 109 118 147 157 151 157 162 161 151 151 148 147 144 147 150 153 151 150 150 138
336 330 329 331 329 324 321 320 312 297 313 308 293 312 316 308 302 297 295 117 72 351 107 118 140 170 166 157 157 156 152 152 148 145 148 147 146 153 153 154 155 154 146
329 327 327 339 335 327 331 330 330 333 336 343 341 339 335 325 339 348 45 45 32 27 99 106 93 152 160 153 146 143 149 150 145 144 148 152 138 157 153 156 159 146 142
325 327 339 341 337 331 333 332 331 334 336 336 348 339 338 345 346 12 9 8 28 44 72 106 113 93 116 129 126 124 127 131 132 134 145 147 140 157 159 161 158 154 146
338 348 346 339 339 333 331 332 335 335 333 338 337 351 350 340 344 25 11 23 19 37 56 80 105 121 121 111 105 116 126 134 127 130 140 138 141 154 158 159 156 151 146
349 353 348 337 337 351 342 344 344 345 342 343 350 357 346 346 10 7 8 11 14 27 55 61 59 119 122 120 117 116 119 116 116 130 134 130 145 154 156 157 152 151 155
360 359 338 341 344 351 346 351 353 347 349 345 350 346 342 1 9 4 3 5 3 13 24 69 60 70 123 119 114 116 118 114 124 126 122 134 145 146 147 148 148 145 139
14 2 357 351 349 354 351 352 353 354 354 353 348 351 354 11 12 8 10 6 3 7 10 33 67 55 58 109 122 125 128 126 128 127 135 132 130 131 136 146 137 131 131
16 13 7 354 350 346 356 1 359 355 358 359 357 358 6 8 7 11 9 360 5 7 13 37 55 65 71 71 84 104 121 117 122 130 133 137 136 138 144 142 137 137 141
21 11 24 14 2 352 358 8 2 2 359 1 2 3 7 10 14 15 14 9 10 11 16 18 22 38 57 61 76 79 82 107 127 135 135 136 136 136 132 132 136 136 134
30 37 41 40 26 6 349 356 2 357 4 8 9 6 7 11 19 18 16 18 21 22 27 28 20 18 43 60 74 95 107 107 118 123 133 135 140 136 139 140 139 135 135
47 53 46 47 44 35 24 7 6 1 360 6 9 11 14 15 20 24 23 28 28 27 22 27 23 33 32 27 49 85 92 107 113 121 127 131 131 133 140 140 139 139 142